Preview of NWS' New Version of Forecast
This preview is not operational and should not be used for support decisions.

Regional Weather Roundup (RWR)

Issued by National Weather Service (NWS)

                            
000
ASUS43 KLSX 181457
RWRMO 

WEATHER SUMMARY FOR MISSOURI
NATIONAL WEATHER SERVICE SPRINGFIELD MO
1000 AM CDT MON MAR 18 2019

NOTE: "FAIR" INDICATES FEW OR NO CLOUDS BELOW 12,000 FEET WITH NO
       SIGNIFICANT WEATHER AND/OR OBSTRUCTIONS TO VISIBILITY.
       CURRENT SKY AND/OR WEATHER CONDITIONS ARE NOT AVAILABLE FOR
       CHILLICOTHE AND FARMINGTON.

MOZ001>031-035>038-043-044-053-054-181600-
...NORTHERN AND WESTERN MISSOURI...
  
CITY           SKY/WX    TMP DP  RH WIND       PRES   REMARKS
KANSAS CTY INT SUNNY     43  29  57 VRB5      30.46R                  
LEE'S SUMMIT   MOSUNNY   43  30  60 NE8       30.46R                  
ST JOSEPH      SUNNY     40  32  73 NE8       30.48R                  
CHILLICOTHE      N/A     40  32  73 CALM      30.48R                  
     
$$
MOZ066>068-077>081-088>096-101>105-181600-
...SOUTHWEST MISSOURI...
  
CITY           SKY/WX    TMP DP  RH WIND       PRES   REMARKS
SPRINGFIELD    SUNNY     47  27  45 NE9       30.41R                  
JOPLIN         SUNNY     48  28  46 E12G22    30.41R                  
BRANSON        PTSUNNY   46  25  42 SE9       30.42R                  
               
$$
MOZ032>034-039>042-045>050-055>058-069>072-181600-
...CENTRAL MISSOURI...  
  
CITY           SKY/WX    TMP DP  RH WIND       PRES   REMARKS
COLUMBIA       NOT AVBL                                               
JEFFERSON CITY SUNNY     44  27  51 N6        30.45S                  
SEDALIA        MOSUNNY   43  28  55 NE7       30.46R                  
WARRENSBURG    SUNNY     41  30  65 NE8       30.47R                  
               
$$
MOZ051-052-059>065-181600-
...EAST CENTRAL MISSOURI...
  
CITY           SKY/WX    TMP DP  RH WIND       PRES   REMARKS
ST LOUIS INTL  SUNNY     41  29  62 N5        30.45R                  
                   
$$
MOZ072>076-082>087-097>100-106>115-181600-
...SOUTH CENTRAL AND SOUTHEAST MISSOURI...
  
CITY           SKY/WX    TMP DP  RH WIND       PRES   REMARKS
CAPE GIRARDEAU FAIR      47  29  49 CALM      30.44R                  
POPLAR BLUFF   CLOUDY    47  32  56 NE7       30.44R                  
WEST PLAINS    SUNNY     47  32  56 E3        30.42R                  
                                       
$$